星链-2429 (STARLINK-2429 )

导读

STARLINK-2429是美国SpaceX公司星链星座中的第一代低轨卫星,于2021年3月11日发射升空。作为星链计划的组成部分,它运行在约550公里高度的近地轨道,采用Ku/Ka频段提供通信服务,主要为全球偏远及网络欠发达地区提供高速宽带互联网接入服务,进一步扩充了星链星座的在轨通信网络规模,支撑星座全球覆盖的服务能力。

基本信息
目录编号:
47838
目录名称:
STARLINK-2429
国际标识:
2021-018BD
轨道中心:
EARTH
卫星名称:
星链-2429
卫星全名:
星链-2429 (STARLINK-2429 )
卫星状态:
在轨 (已飞行1925 天)
发射日期:
2021-03-11 UTC
国别 :
美国 (US)
星等 :
--
轨道信息
数据来源 国际轨道数据 AOE轨道数据
星历时间 2026-06-18T14:51:55+0800
9小时前
查看轨道信息
2026-06-15T06:00:00+0800
3天前
查看轨道信息
半长轴 6848.867km 6848.92km
偏心率 0.0001274 0.0001036
轨道倾角 53.158° 53.158°
近地点辐角 94.077° 93.237°
升交点赤经 137.762° 153.448°
平近点角 266.038° 37.292°
近地点 469.857km 470.073km
远地点 471.603km 471.493km
周期 94.013分钟 94.014分钟
每日圈数 15.317036 15.316856
详细信息
固有亮度:
5
最大亮度:
2.5
卫星平台:
Starlink V1.0
覆盖范围:
全球
运营商:
太空探索技术公司
运营商所在国:
美国
制造商(研发单位):
太空探索技术公司
制造商所在国:
美国
使用方式:
暂无
卫星简介
星链(Starlink)计划是由太空探索技术公司(SpaceX)提出的一个巨型低轨卫星互联网星座项目,计划在2019年至2024年间在太空搭建由约1.2万颗卫星组成的“星链”网络,其中1584颗将部署在地球上空550千米处的近地轨道,并从2020年开始工作。该卫星仍在工作。
2D轨道图
3D轨道图
轨道高度分析图
轨道倾角分析图
轨道综合分析图
查看轨道综合分析图